Location: Kellogg
(38.0159°N, 90.0546°W)
Time: 21:56:26
(UTC+00:00)

Transit 4A - Pass Details

Date: 12 September 2024
Orbit: 864 x 978 km, 66.8° (Epoch: 12 October)

Event Time Altitude Azimuth Distance (km) Brightness Sun altitude
Rises 20:17:32 0° 311° (NW) 3,627 11.1 43.0°
Reaches altitude 10° 20:21:23 10° 288° (WNW) 2,696 10.8 42.4°
Maximum altitude 20:24:28 14° 258° (WSW) 2,414 11.1 41.9°
Drops below altitude 10° 20:27:34 10° 228° (SW) 2,711 11.5 41.4°
Sets 20:31:29 0° 205° (SSW) 3,660 11.7 40.7°
